Location: Middlebury
(44.0153°N, 73.1678°W)
Time: 20:30:52
(UTC-04:00)

ISS - Pass Details

Date: 01 August 2017
Orbit: 409 x 418 km, 51.6° (Epoch: 17 July)

Event Time Altitude Azimuth Distance (km) Brightness Sun altitude
Rises 22:02:13 0° 299° (WNW) 2,370 1.5 -16.2°
Reaches altitude 10° 22:04:19 10° 296° (WNW) 1,512 0.2 -16.5°
Maximum altitude 22:07:40 60° 216° (SW) 496 -3.5 -16.9°
Enters shadow 22:08:26 45° 162° (SSE) 598 -3.4 -17.0°
